Location: Observatoire
(46.1952°N, 5.3391°E)
Time: 18:52:18
(UTC+01:00)

Courier 1B - Pass Details

Date: 23 February 2026
Orbit: 962 x 1208 km, 28.3° (Epoch: 6 March)

Event Time Altitude Azimuth Distance (km) Brightness Sun altitude
Rises 21:03:43 0° 244° (WSW) 3,854 11.2 -29.4°
Reaches altitude 10° 21:07:28 10° 225° (SW) 2,947 10.3 -30.1°
Enters shadow 21:11:32 17° 191° (S) 2,504 9.5 -30.7°
